Location: ????? ??????
(37.8317°N, 23.8750°E)
Time: 11:43:49
(UTC+00:00)

Cosmos 1844 Rocket - Pass Details

Date: 20 January 2021
Orbit: 826 x 843 km, 71.0° (Epoch: 03 March)

Event Time Altitude Azimuth Distance (km) Brightness Sun altitude
Rises 16:22:45 0° 189° (S) 3,384 6.2 -9.7°
Reaches altitude 10° 16:25:13 10° 185° (S) 2,453 5.4 -10.1°
Maximum altitude 16:30:43 57° 108° (ESE) 990 2.8 -11.2°
Drops below altitude 10° 16:36:14 10° 31° (NNE) 2,463 4.7 -12.2°
Enters shadow 16:37:15 - 29° (NNE) 2,843 5.0 -12.4°
